Starlink 5666

operational
NORAD ID: 55349 Int'l Des: 2023-013 Owner: SPXS Country: US Constellation: starlink
LEOCIRCULAR

Über Starlink 5666

Beschreibung wird geladen...

Live-Position

3D-Globus wird geladen...

Nächste Überflüge

Höhenverlauf

Altitude vs Time

uPlot chart will show altitude changes over time

Zweizeiliger Elementsatz

1 55349U 23013U 25305.61197523 -.00000150 00000-0 39808-5 0 9994
2 55349 43.0055 276.2314 0001222 264.7445 95.3258 15.02534123152443
Epoch: 1. Nov. 2025 • Age: 9 hours

Aktueller Status

Höhe 571.6 km
Geschwindigkeit 7.58 km/s
Subsatellitenpunkt -43.10°S, 148.4°E
Startdatum 26. Jan. 2023
Alter 2.7 years
Typ internet

Technische Details

Klassifizierung Payload
Masse 305.00 kg
Trockenmasse 290.00 kg
Gesamtmasse 305.00 kg
Länge 0.20 m
Durchmesser 2.80 m
Spannweite 9.00 m
Form Box + pan
Hersteller SPXS
Bus-Typ Starlink
Phasenstatus In Orbit
Besitzer/Staat SPXS/US

Große Konstellationen

Loading constellations...